SIRIUS FM-5

Last updated on Mon Jan 25 2021 10:34:31 GMT+0000 (Coordinated Universal Time)

1 35493U 09034A 21024.98511062 -.00000188 00000-0 00000+0 0 9998 2 35493 0.0207 330.6886 0000308 2.1311 60.1822 1.00273381 42233
UTC large
Height (km)
Speed (km/s)
/
Latitude / Longitude
Inclination (degrees)
Orbital Period (minutes)
Azimuth
Elevation
Range (km)
Doppler Factor

Next 0 passes for location: London (51.5072 / 0.1276)

Sorry there are no passes over London.